Retour au catalogue

COSMOS 1275 DEB

ActifPO
NORAD 12964·DEBRIS·🇷🇺 Russia

Lancé Jun 4, 1981 depuis Plesetsk Cosmodrome

Loading…

Prochains Passages (prochaines 24 heures)

TLE

FraisSource: Space-Track

Époque: Sep 14, 2026, 09:01 UTC

1 12964U 81053EK  26257.37602631  .00000022  00000-0  66533-5 0  9991
2 12964  82.9442  49.3594 0037546 243.2578 142.9344 13.80318407261127

Suivez COSMOS 1275 DEB en temps réel avec AllMySat

Download on the App Store